Time,TemperatureF,DewpointF,PressureIn,WindDirection,WindDirectionDegrees,WindSpeedMPH,WindSpeedGustMPH,Humidity,HourlyPrecipIn,Conditions,Clouds,dailyrainin,SolarRadiationWatts/m^2,SoftwareType,DateUTC
2013-07-06 00:00:00,75.4,64.5,29.71,ESE,121,0.0,0.0,69,0.00,,,0.00,0,Wunderground v.1.15,2013-07-06 05:00:00,
2013-07-06 00:09:00,75.2,64.7,29.71,ESE,121,0.0,0.0,70,0.00,,,0.00,0,Wunderground v.1.15,2013-07-06 05:09:00,
2013-07-06 00:20:00,75.1,64.6,29.70,ESE,117,0.0,0.0,70,0.00,,,0.00,0,Wunderground v.1.15,2013-07-06 05:20:00,
2013-07-06 00:30:00,75.0,64.5,29.70,ESE,117,0.0,0.0,70,0.00,,,0.00,0,Wunderground v.1.15,2013-07-06 05:30:00,
2013-07-06 00:35:00,74.9,64.5,29.70,ESE,117,0.0,0.0,70,0.00,,,0.00,0,Wunderground v.1.15,2013-07-06 05:35:00,
2013-07-06 00:45:00,74.7,64.3,29.70,ESE,117,0.0,0.0,70,0.00,,,0.00,0,Wunderground v.1.15,2013-07-06 05:45:00,
2013-07-06 00:54:00,74.7,64.3,29.70,ESE,117,0.0,0.0,70,0.00,,,0.00,0,Wunderground v.1.15,2013-07-06 05:54:00,
2013-07-06 01:05:00,74.7,64.3,29.71,ESE,117,0.0,0.0,70,0.00,,,0.00,0,Wunderground v.1.15,2013-07-06 06:05:00,
2013-07-06 01:10:00,74.6,63.8,29.71,ESE,117,0.0,0.0,69,0.00,,,0.00,0,Wunderground v.1.15,2013-07-06 06:10:00,
2013-07-06 01:19:00,74.6,63.8,29.71,ESE,117,0.0,0.0,69,0.00,,,0.00,0,Wunderground v.1.15,2013-07-06 06:19:00,
2013-07-06 01:29:00,74.5,63.7,29.71,East,92,0.0,0.0,69,0.00,,,0.00,0,Wunderground v.1.15,2013-07-06 06:29:00,
2013-07-06 01:34:00,74.4,63.6,29.71,East,92,0.0,0.0,69,0.00,,,0.00,0,Wunderground v.1.15,2013-07-06 06:34:00,
2013-07-06 01:45:00,74.3,63.5,29.71,East,92,0.0,0.0,69,0.00,,,0.00,0,Wunderground v.1.15,2013-07-06 06:45:00,
2013-07-06 01:54:00,74.1,63.7,29.71,East,92,0.0,0.0,70,0.00,,,0.00,0,Wunderground v.1.15,2013-07-06 06:54:00,
2013-07-06 02:04:00,73.9,63.5,29.71,East,92,0.0,0.0,70,0.00,,,0.00,0,Wunderground v.1.15,2013-07-06 07:04:00,
2013-07-06 02:10:00,73.9,63.5,29.71,East,92,0.0,0.0,70,0.00,,,0.00,0,Wunderground v.1.15,2013-07-06 07:10:00,
2013-07-06 02:19:00,73.7,63.3,29.71,East,92,0.0,0.0,70,0.00,,,0.00,0,Wunderground v.1.15,2013-07-06 07:19:00,
2013-07-06 02:24:00,73.7,63.3,29.71,East,92,0.0,0.0,70,0.00,,,0.00,0,Wunderground v.1.15,2013-07-06 07:24:00,
2013-07-06 02:34:00,73.5,63.1,29.71,East,92,0.0,0.0,70,0.00,,,0.00,0,Wunderground v.1.15,2013-07-06 07:34:00,
2013-07-06 02:40:00,73.4,63.0,29.71,East,92,0.0,0.0,70,0.00,,,0.00,0,Wunderground v.1.15,2013-07-06 07:40:00,
2013-07-06 02:49:00,73.3,63.3,29.72,East,92,0.0,0.0,71,0.00,,,0.00,0,Wunderground v.1.15,2013-07-06 07:49:00,
2013-07-06 02:55:00,73.2,63.2,29.72,East,92,0.0,0.0,71,0.00,,,0.00,0,Wunderground v.1.15,2013-07-06 07:55:00,
2013-07-06 03:04:00,73.1,63.1,29.72,East,92,0.0,0.0,71,0.00,,,0.00,0,Wunderground v.1.15,2013-07-06 08:04:00,
2013-07-06 03:14:00,72.9,62.9,29.72,East,92,0.0,0.0,71,0.00,,,0.00,0,Wunderground v.1.15,2013-07-06 08:14:00,
2013-07-06 03:25:00,72.7,62.8,29.72,East,92,0.0,0.0,71,0.00,,,0.00,0,Wunderground v.1.15,2013-07-06 08:25:00,
2013-07-06 03:30:00,72.7,63.1,29.72,East,92,0.0,0.0,72,0.00,,,0.00,0,Wunderground v.1.15,2013-07-06 08:30:00,
2013-07-06 03:40:00,72.5,63.0,29.72,East,92,0.0,0.0,72,0.00,,,0.00,0,Wunderground v.1.15,2013-07-06 08:40:00,
2013-07-06 03:49:00,72.4,62.9,29.72,East,92,0.0,0.0,72,0.00,,,0.00,0,Wunderground v.1.15,2013-07-06 08:49:00,
2013-07-06 03:55:00,72.3,62.8,29.72,East,92,0.0,0.0,72,0.00,,,0.00,0,Wunderground v.1.15,2013-07-06 08:55:00,
2013-07-06 04:05:00,72.2,62.7,29.72,East,92,0.0,0.0,72,0.00,,,0.00,0,Wunderground v.1.15,2013-07-06 09:05:00,
2013-07-06 04:14:00,72.1,62.6,29.72,East,92,0.0,0.0,72,0.00,,,0.00,0,Wunderground v.1.15,2013-07-06 09:14:00,
2013-07-06 04:19:00,72.0,62.5,29.72,East,92,0.0,0.0,72,0.00,,,0.00,0,Wunderground v.1.15,2013-07-06 09:19:00,
2013-07-06 04:29:00,71.9,62.8,29.72,East,92,0.0,0.0,73,0.00,,,0.00,0,Wunderground v.1.15,2013-07-06 09:29:00,
2013-07-06 04:35:00,71.8,62.7,29.72,East,92,0.0,0.0,73,0.00,,,0.00,0,Wunderground v.1.15,2013-07-06 09:35:00,
2013-07-06 04:45:00,71.6,62.5,29.71,East,92,0.0,0.0,73,0.00,,,0.00,0,Wunderground v.1.15,2013-07-06 09:45:00,
2013-07-06 04:54:00,71.5,62.4,29.71,East,92,0.0,0.0,73,0.00,,,0.00,0,Wunderground v.1.15,2013-07-06 09:54:00,
2013-07-06 05:05:00,71.3,62.6,29.71,East,90,0.0,0.0,74,0.00,,,0.00,0,Wunderground v.1.15,2013-07-06 10:05:00,
2013-07-06 05:10:00,71.2,62.5,29.71,East,90,0.0,0.0,74,0.00,,,0.00,0,Wunderground v.1.15,2013-07-06 10:10:00,
2013-07-06 05:19:00,71.0,62.3,29.71,East,90,0.0,0.0,74,0.00,,,0.00,0,Wunderground v.1.15,2013-07-06 10:19:00,
2013-07-06 05:30:00,71.0,62.3,29.71,East,90,0.0,0.0,74,0.00,,,0.00,0,Wunderground v.1.15,2013-07-06 10:30:00,
2013-07-06 05:40:00,70.9,62.6,29.71,East,88,0.0,0.0,75,0.00,,,0.00,0,Wunderground v.1.15,2013-07-06 10:40:00,
2013-07-06 05:50:00,70.7,62.4,29.72,East,88,0.0,0.0,75,0.00,,,0.00,0,Wunderground v.1.15,2013-07-06 10:50:00,
2013-07-06 05:59:00,70.6,62.3,29.71,East,88,0.0,0.0,75,0.00,,,0.00,0,Wunderground v.1.15,2013-07-06 10:59:00,
2013-07-06 06:10:00,70.6,62.3,29.71,East,89,0.0,0.0,75,0.00,,,0.00,9,Wunderground v.1.15,2013-07-06 11:10:00,
2013-07-06 06:20:00,70.8,62.5,29.72,East,94,0.0,0.0,75,0.00,,,0.00,14,Wunderground v.1.15,2013-07-06 11:20:00,
2013-07-06 06:29:00,71.0,62.7,29.72,East,93,0.0,0.0,75,0.00,,,0.00,25,Wunderground v.1.15,2013-07-06 11:29:00,
2013-07-06 06:39:00,71.1,62.8,29.72,East,93,0.0,0.0,75,0.00,,,0.00,30,Wunderground v.1.15,2013-07-06 11:39:00,
2013-07-06 06:50:00,71.3,63.0,29.72,ESE,107,0.0,0.0,75,0.00,,,0.00,39,Wunderground v.1.15,2013-07-06 11:50:00,
2013-07-06 06:59:00,71.5,62.8,29.72,ESE,120,0.0,0.0,74,0.00,,,0.00,44,Wunderground v.1.15,2013-07-06 11:59:00,
2013-07-06 07:09:00,71.7,63.0,29.72,ESE,120,0.0,0.0,74,0.00,,,0.00,47,Wunderground v.1.15,2013-07-06 12:09:00,
2013-07-06 07:20:00,71.9,63.2,29.72,ESE,120,0.0,0.0,74,0.00,,,0.00,30,Wunderground v.1.15,2013-07-06 12:20:00,
2013-07-06 07:30:00,71.9,63.2,29.72,ESE,120,0.0,0.0,74,0.00,,,0.00,32,Wunderground v.1.15,2013-07-06 12:30:00,
2013-07-06 07:39:00,71.9,63.2,29.72,ESE,115,0.0,0.0,74,0.00,,,0.00,42,Wunderground v.1.15,2013-07-06 12:39:00,
2013-07-06 07:49:00,71.9,63.2,29.71,ESE,115,0.0,0.0,74,0.00,,,0.00,56,Wunderground v.1.15,2013-07-06 12:49:00,
2013-07-06 07:55:00,71.9,63.2,29.71,ESE,115,0.0,0.0,74,0.00,,,0.00,54,Wunderground v.1.15,2013-07-06 12:55:00,
2013-07-06 08:05:00,71.9,63.2,29.71,ESE,115,0.0,0.0,74,0.00,,,0.00,47,Wunderground v.1.15,2013-07-06 13:05:00,
2013-07-06 08:15:00,71.9,63.5,29.71,ESE,115,0.0,0.0,75,0.00,,,0.00,54,Wunderground v.1.15,2013-07-06 13:15:00,
2013-07-06 08:24:00,72.0,63.6,29.71,ESE,115,0.0,0.0,75,0.00,,,0.00,63,Wunderground v.1.15,2013-07-06 13:24:00,
2013-07-06 08:29:00,72.0,63.6,29.71,ESE,115,0.0,0.0,75,0.00,,,0.00,109,Wunderground v.1.15,2013-07-06 13:29:00,
2013-07-06 08:40:00,73.0,64.6,29.71,ESE,115,0.0,0.0,75,0.00,,,0.00,360,Wunderground v.1.15,2013-07-06 13:40:00,
2013-07-06 08:50:00,74.5,65.7,29.70,SE,126,0.0,0.0,74,0.00,,,0.00,406,Wunderground v.1.15,2013-07-06 13:50:00,
2013-07-06 08:59:00,75.8,66.1,29.70,SE,126,0.0,0.0,72,0.00,,,0.00,473,Wunderground v.1.15,2013-07-06 13:59:00,
2013-07-06 09:09:00,77.6,66.6,29.70,ESE,123,0.0,3.0,69,0.00,,,0.00,568,Wunderground v.1.15,2013-07-06 14:09:00,
2013-07-06 09:15:00,78.7,67.2,29.70,ESE,107,0.0,3.0,68,0.00,,,0.00,624,Wunderground v.1.15,2013-07-06 14:15:00,
2013-07-06 09:25:00,79.5,66.7,29.70,SE,133,1.0,3.0,65,0.00,,,0.00,313,Wunderground v.1.15,2013-07-06 14:25:00,
2013-07-06 09:34:00,79.6,67.2,29.69,SE,132,0.0,2.0,66,0.00,,,0.00,313,Wunderground v.1.15,2013-07-06 14:34:00,
2013-07-06 09:39:00,79.5,66.7,29.69,ESE,123,1.0,1.0,65,0.00,,,0.00,295,Wunderground v.1.15,2013-07-06 14:39:00,
2013-07-06 09:50:00,79.4,66.6,29.69,ESE,108,1.0,1.0,65,0.00,,,0.00,255,Wunderground v.1.15,2013-07-06 14:50:00,
2013-07-06 09:59:00,79.9,67.1,29.69,SE,126,1.0,1.0,65,0.00,,,0.00,490,Wunderground v.1.15,2013-07-06 14:59:00,
2013-07-06 10:09:00,80.1,67.3,29.69,SE,135,0.0,5.0,65,0.00,,,0.00,536,Wunderground v.1.15,2013-07-06 15:09:00,
2013-07-06 10:20:00,80.2,67.4,29.69,South,173,0.0,3.0,65,0.00,,,0.00,568,Wunderground v.1.15,2013-07-06 15:20:00,
2013-07-06 10:29:00,80.5,67.6,29.69,ESE,113,1.0,1.0,65,0.00,,,0.00,206,Wunderground v.1.15,2013-07-06 15:29:00,
2013-07-06 10:39:00,80.7,67.4,29.69,ESE,109,1.0,4.0,64,0.00,,,0.00,172,Wunderground v.1.15,2013-07-06 15:39:00,
2013-07-06 10:49:00,80.8,67.9,29.69,SE,130,1.0,1.0,65,0.00,,,0.00,144,Wunderground v.1.15,2013-07-06 15:49:00,
2013-07-06 10:55:00,80.5,67.6,29.69,SE,127,0.0,3.0,65,0.00,,,0.00,148,Wunderground v.1.15,2013-07-06 15:55:00,
2013-07-06 11:04:00,81.3,68.0,29.68,SE,127,1.0,3.0,64,0.00,,,0.00,130,Wunderground v.1.15,2013-07-06 16:04:00,
2013-07-06 11:09:00,81.5,69.0,29.68,East,81,1.0,3.0,66,0.00,,,0.00,137,Wunderground v.1.15,2013-07-06 16:09:00,
2013-07-06 11:19:00,82.0,68.2,29.69,ESE,109,2.0,2.0,63,0.00,,,0.00,132,Wunderground v.1.15,2013-07-06 16:19:00,
2013-07-06 11:25:00,82.0,68.6,29.69,ESE,111,1.0,3.0,64,0.00,,,0.00,120,Wunderground v.1.15,2013-07-06 16:25:00,
2013-07-06 11:34:00,82.3,69.8,29.69,SE,143,0.0,3.0,66,0.00,,,0.00,118,Wunderground v.1.15,2013-07-06 16:34:00,
2013-07-06 11:49:00,83.3,69.4,29.68,SE,130,1.0,3.0,63,0.00,,,0.00,120,Wunderground v.1.15,2013-07-06 16:49:00,
2013-07-06 12:05:00,83.6,67.8,29.68,SE,140,1.0,4.0,59,0.00,,,0.00,127,Wunderground v.1.15,2013-07-06 17:05:00,
2013-07-06 12:15:00,83.8,67.9,29.68,ESE,109,1.0,3.0,59,0.00,,,0.00,172,Wunderground v.1.15,2013-07-06 17:15:00,
2013-07-06 12:24:00,84.2,68.8,29.68,SSW,193,0.0,3.0,60,0.00,,,0.00,318,Wunderground v.1.15,2013-07-06 17:24:00,
2013-07-06 12:35:00,84.7,67.3,29.68,SE,138,0.0,3.0,56,0.00,,,0.00,141,Wunderground v.1.15,2013-07-06 17:35:00,
2013-07-06 12:45:00,84.5,68.1,29.67,ESE,123,0.0,3.0,58,0.00,,,0.00,156,Wunderground v.1.15,2013-07-06 17:45:00,
2013-07-06 12:55:00,83.8,69.4,29.67,WSW,257,1.0,3.0,62,0.00,,,0.00,165,Wunderground v.1.15,2013-07-06 17:55:00,
2013-07-06 13:09:00,84.7,69.3,29.67,ESE,119,1.0,1.0,60,0.00,,,0.00,868,Wunderground v.1.15,2013-07-06 18:09:00,
2013-07-06 13:25:00,86.3,71.7,29.67,East,95,0.0,3.0,62,0.00,,,0.00,969,Wunderground v.1.15,2013-07-06 18:25:00,
2013-07-06 13:44:00,85.4,68.4,29.66,ESE,113,0.0,3.0,57,0.00,,,0.00,940,Wunderground v.1.15,2013-07-06 18:44:00,
2013-07-06 13:54:00,86.0,69.0,29.66,SE,133,1.0,3.0,57,0.00,,,0.00,615,Wunderground v.1.15,2013-07-06 18:54:00,
2013-07-06 14:00:00,85.4,68.9,29.66,ESE,116,0.0,3.0,58,0.00,,,0.00,564,Wunderground v.1.15,2013-07-06 19:00:00,
2013-07-06 14:10:00,85.8,69.3,29.66,East,84,0.0,3.0,58,0.00,,,0.00,538,Wunderground v.1.15,2013-07-06 19:10:00,
2013-07-06 14:24:00,85.8,68.8,29.66,ESE,108,0.0,3.0,57,0.00,,,0.00,473,Wunderground v.1.15,2013-07-06 19:24:00,
2013-07-06 14:29:00,85.7,68.7,29.66,ESE,123,0.0,3.0,57,0.00,,,0.00,619,Wunderground v.1.15,2013-07-06 19:29:00,
2013-07-06 14:40:00,86.1,68.6,29.66,SE,136,0.0,3.0,56,0.00,,,0.00,578,Wunderground v.1.15,2013-07-06 19:40:00,
2013-07-06 14:45:00,86.2,69.2,29.66,SE,143,0.0,3.0,57,0.00,,,0.00,779,Wunderground v.1.15,2013-07-06 19:45:00,
2013-07-06 14:54:00,87.2,69.6,29.66,SE,128,0.0,3.0,56,0.00,,,0.00,613,Wunderground v.1.15,2013-07-06 19:54:00,
2013-07-06 15:14:00,88.2,70.0,29.66,East,98,0.0,3.0,55,0.00,,,0.00,677,Wunderground v.1.15,2013-07-06 20:14:00,
2013-07-06 15:25:00,87.5,68.3,29.66,SE,128,0.0,3.0,53,0.00,,,0.00,476,Wunderground v.1.15,2013-07-06 20:25:00,
2013-07-06 15:30:00,87.1,68.4,29.66,SE,130,1.0,3.0,54,0.00,,,0.00,411,Wunderground v.1.15,2013-07-06 20:30:00,
2013-07-06 15:39:00,86.2,68.1,29.66,SE,137,2.0,5.0,55,0.00,,,0.00,334,Wunderground v.1.15,2013-07-06 20:39:00,
2013-07-06 15:44:00,85.9,68.4,29.66,SE,128,3.0,5.0,56,0.00,,,0.00,325,Wunderground v.1.15,2013-07-06 20:44:00,
2013-07-06 15:55:00,85.7,68.7,29.66,East,101,1.0,5.0,57,0.00,,,0.00,369,Wunderground v.1.15,2013-07-06 20:55:00,
2013-07-06 16:10:00,86.1,69.1,29.66,East,96,1.0,1.0,57,0.00,,,0.00,540,Wunderground v.1.15,2013-07-06 21:10:00,
2013-07-06 16:19:00,86.7,69.6,29.65,ESE,117,0.0,3.0,57,0.00,,,0.00,752,Wunderground v.1.15,2013-07-06 21:19:00,
2013-07-06 16:29:00,86.8,70.8,29.65,SE,134,0.0,3.0,59,0.00,,,0.00,724,Wunderground v.1.15,2013-07-06 21:29:00,
2013-07-06 16:45:00,86.3,69.8,29.65,ESE,115,0.0,3.0,58,0.00,,,0.00,274,Wunderground v.1.15,2013-07-06 21:45:00,
2013-07-06 16:54:00,86.6,69.6,29.65,ESE,121,0.0,4.0,57,0.00,,,0.00,656,Wunderground v.1.15,2013-07-06 21:54:00,
2013-07-06 17:14:00,86.7,68.6,29.65,ESE,121,1.0,3.0,55,0.00,,,0.00,603,Wunderground v.1.15,2013-07-06 22:14:00,
2013-07-06 17:30:00,85.7,68.7,29.65,ESE,117,1.0,1.0,57,0.00,,,0.00,559,Wunderground v.1.15,2013-07-06 22:30:00,
2013-07-06 17:39:00,85.5,69.0,29.65,SE,138,0.0,3.0,58,0.00,,,0.00,524,Wunderground v.1.15,2013-07-06 22:39:00,
2013-07-06 17:49:00,84.9,69.0,29.64,ESE,117,0.0,3.0,59,0.00,,,0.00,508,Wunderground v.1.15,2013-07-06 22:49:00,
2013-07-06 18:10:00,84.3,69.4,29.64,ESE,109,1.0,3.0,61,0.00,,,0.00,441,Wunderground v.1.15,2013-07-06 23:10:00,
2013-07-06 18:20:00,83.9,69.5,29.64,ESE,117,0.0,3.0,62,0.00,,,0.00,408,Wunderground v.1.15,2013-07-06 23:20:00,
2013-07-06 18:34:00,84.0,69.6,29.64,SSE,160,1.0,3.0,62,0.00,,,0.00,360,Wunderground v.1.15,2013-07-06 23:34:00,
2013-07-06 18:45:00,83.9,70.0,29.64,ESE,105,0.0,3.0,63,0.00,,,0.00,329,Wunderground v.1.15,2013-07-06 23:45:00,
2013-07-06 18:55:00,83.9,70.0,29.64,East,89,0.0,3.0,63,0.00,,,0.00,297,Wunderground v.1.15,2013-07-06 23:55:00,
2013-07-06 19:00:00,83.4,69.9,29.64,SE,136,1.0,1.0,64,0.00,,,0.00,281,Wunderground v.1.15,2013-07-07 00:00:00,
2013-07-06 19:14:00,82.8,69.4,29.64,ESE,121,0.0,3.0,64,0.00,,,0.00,232,Wunderground v.1.15,2013-07-07 00:14:00,
2013-07-06 19:25:00,82.4,69.0,29.64,East,98,0.0,3.0,64,0.00,,,0.00,197,Wunderground v.1.15,2013-07-07 00:25:00,
2013-07-06 19:34:00,82.0,69.1,29.64,ESE,115,1.0,3.0,65,0.00,,,0.00,65,Wunderground v.1.15,2013-07-07 00:34:00,
2013-07-06 19:45:00,81.7,68.8,29.64,East,90,0.0,3.0,65,0.00,,,0.00,53,Wunderground v.1.15,2013-07-07 00:45:00,
2013-07-06 19:59:00,81.2,68.8,29.64,East,86,0.0,3.0,66,0.00,,,0.00,40,Wunderground v.1.15,2013-07-07 00:59:00,
2013-07-06 20:04:00,80.9,68.5,29.64,ESE,107,0.0,3.0,66,0.00,,,0.00,35,Wunderground v.1.15,2013-07-07 01:04:00,
2013-07-06 20:24:00,80.1,68.6,29.65,East,88,0.0,3.0,68,0.00,,,0.00,19,Wunderground v.1.15,2013-07-07 01:24:00,
2013-07-06 20:44:00,79.5,68.0,29.65,ESE,116,0.0,3.0,68,0.00,,,0.00,7,Wunderground v.1.15,2013-07-07 01:44:00,
2013-07-06 20:54:00,79.1,68.1,29.65,ESE,116,0.0,3.0,69,0.00,,,0.00,0,Wunderground v.1.15,2013-07-07 01:54:00,
2013-07-06 21:04:00,78.8,67.8,29.65,ESE,115,0.0,3.0,69,0.00,,,0.00,0,Wunderground v.1.15,2013-07-07 02:04:00,
2013-07-06 21:10:00,78.7,68.1,29.65,ESE,115,0.0,3.0,70,0.00,,,0.00,0,Wunderground v.1.15,2013-07-07 02:10:00,
2013-07-06 21:20:00,78.5,67.9,29.66,ESE,115,0.0,3.0,70,0.00,,,0.00,0,Wunderground v.1.15,2013-07-07 02:20:00,
2013-07-06 21:29:00,78.2,67.6,29.67,ESE,115,0.0,3.0,70,0.00,,,0.00,0,Wunderground v.1.15,2013-07-07 02:29:00,
2013-07-06 21:39:00,78.0,67.8,29.67,East,93,0.0,3.0,71,0.00,,,0.00,0,Wunderground v.1.15,2013-07-07 02:39:00,
2013-07-06 21:45:00,77.8,67.6,29.67,East,93,0.0,3.0,71,0.00,,,0.00,0,Wunderground v.1.15,2013-07-07 02:45:00,
2013-07-06 21:55:00,77.7,67.5,29.67,East,91,0.0,3.0,71,0.00,,,0.00,0,Wunderground v.1.15,2013-07-07 02:55:00,
2013-07-06 22:05:00,77.3,67.6,29.68,East,91,0.0,3.0,72,0.00,,,0.00,0,Wunderground v.1.15,2013-07-07 03:05:00,
2013-07-06 22:14:00,77.2,67.5,29.68,East,91,0.0,3.0,72,0.00,,,0.00,0,Wunderground v.1.15,2013-07-07 03:14:00,
2013-07-06 22:25:00,77.0,67.7,29.68,East,91,0.0,3.0,73,0.00,,,0.00,0,Wunderground v.1.15,2013-07-07 03:25:00,
2013-07-06 22:34:00,77.0,67.3,29.69,East,91,0.0,3.0,72,0.00,,,0.00,0,Wunderground v.1.15,2013-07-07 03:34:00,
2013-07-06 22:40:00,77.1,67.4,29.69,East,91,0.0,0.0,72,0.00,,,0.00,0,Wunderground v.1.15,2013-07-07 03:40:00,
2013-07-06 22:45:00,76.9,67.2,29.69,East,91,0.0,0.0,72,0.00,,,0.00,0,Wunderground v.1.15,2013-07-07 03:45:00,
2013-07-06 22:59:00,76.8,67.1,29.69,East,91,0.0,0.0,72,0.00,,,0.00,0,Wunderground v.1.15,2013-07-07 03:59:00,
2013-07-06 23:04:00,76.8,67.1,29.69,East,98,0.0,0.0,72,0.00,,,0.00,0,Wunderground v.1.15,2013-07-07 04:04:00,
2013-07-06 23:14:00,76.7,67.0,29.70,East,98,0.0,0.0,72,0.00,,,0.00,0,Wunderground v.1.15,2013-07-07 04:14:00,
2013-07-06 23:25:00,76.6,66.9,29.70,East,98,0.0,0.0,72,0.00,,,0.00,0,Wunderground v.1.15,2013-07-07 04:25:00,
2013-07-06 23:30:00,76.4,67.1,29.70,East,98,0.0,0.0,73,0.00,,,0.00,0,Wunderground v.1.15,2013-07-07 04:30:00,
2013-07-06 23:39:00,76.2,66.9,29.70,East,98,0.0,0.0,73,0.00,,,0.00,0,Wunderground v.1.15,2013-07-07 04:39:00,
2013-07-06 23:44:00,76.0,66.7,29.70,East,98,0.0,0.0,73,0.00,,,0.00,0,Wunderground v.1.15,2013-07-07 04:44:00,
2013-07-06 23:55:00,76.0,66.7,29.70,East,98,0.0,0.0,73,0.00,,,0.00,0,Wunderground v.1.15,2013-07-07 04:55:00,